Regional Weather Roundup
Issued by NWS

Home | Current Version | Previous Version | Text Only | Print | Product List | Glossary On
Versions: 1 2 3 4 5 6 7 8 9 10 11 12 13 14 15 16 17 18 19 20 21 22 23 24 25 26 27 28 29 30 31 32 33 34 35 36 37 38 39 40 41 42 43 44 45 46 47 48 49 50
000
ASUS44 KJAN 200503
RWRMS

MISSISSIPPI HOURLY WEATHER ROUNDUP
NATIONAL WEATHER SERVICE JACKSON MS
1200 AM CDT SAT SEP 20 2014

NOTE: "FAIR: INDICATES FEW OR NO CLOUDS BELOW 12,000 FEET WITH NO
SIGNIFICANT WEATHER AND/OR OBSTRUCTIONS TO VISIBILITY.

MSZ001>002-007>008-010>013-018>021-025>028-034>036-200600-
NORTHWEST MISSISSIPPI

CITY           SKY/WX    TMP DP  RH WIND       PRES   REMARKS
CLARKSDALE     FAIR      70  70 100 CALM      30.02F
CLEVELAND      FAIR      72  70  94 E5        30.00S
GREENWOOD      CLEAR     70  67  90 N5        30.00S
GREENVILLE     CLEAR     72  66  81 CALM      29.99S
GRENADA        FAIR      70  68  94 CALM      30.02S
OLIVE BRANCH   CLEAR     70  70 100 CALM      30.04S
OXFORD         FAIR      66  64  94 CALM      30.05S
TUNICA         CLEAR     68  66  94 NE3       30.03S
$$

MSZ003>006-009-014>017-022>024-029>033-037>039-200600-
NORTHEAST MISSISSIPPI

CITY           SKY/WX    TMP DP  RH WIND       PRES   REMARKS
COLUMBUS AFB   CLEAR     73  67  82 E1        30.03S
CORINTH          N/A     66  64  94 CALM      30.04S FOG
GOLDN TRIANGLE CLEAR     75  64  69 E9        30.03S
STARKVILLE     FAIR      73  64  73 E3        30.03S
TUPELO         CLEAR     71  68  90 CALM      30.04R
$$

MSZ040-058-200600-
CENTRAL MISSISSIPPI

CITY           SKY/WX    TMP DP  RH WIND       PRES   REMARKS
JACKSON INTL   CLEAR     70  68  93 CALM      29.99F
JACKSON HAWKNS CLEAR     74  69  85 CALM      30.00S
MERIDIAN KEY   CLEAR     70  67  90 SW3       30.01F
MERIDIAN NAS   CLEAR     72  65  78 E5        30.02S
RAYMOND        FAIR      70  64  83 CALM      30.00S HAZE
VICKSBURG      CLEAR     70  68  93 CALM      29.98S
$$

MSZ059>079-200600-
SOUTH MISSISSIPPI

CITY           SKY/WX    TMP DP  RH WIND       PRES   REMARKS
BROOKHAVEN     FAIR      70  68  94 CALM      30.02S FOG
COLUMBIA       FAIR      68  68 100 CALM      29.98F
HATTIESBURG    CLEAR     71  68  90 CALM      30.01F
MCCOMB         CLEAR     72  68  87 CALM      30.00S
NATCHEZ        CLEAR     73  70  88 CALM      29.99S
PINE BELT      CLEAR    N/A N/A N/A CALM      30.01S
$$

MSZ080>082-200600-
COASTAL MISSISSIPPI

CITY           SKY/WX    TMP DP  RH WIND       PRES   REMARKS
BILOXI         CLEAR     75  69  80 E6        29.98S
PASCAGOULA     CLEAR     70  68  93 N5        29.98F
GULFPORT       CLEAR     75  69  81 NE5       29.97F
$$


USA.gov is the U.S. government's official web portal to all federal, state and local government web resources and services.